Showing default

TBA - TO BE ASSIGNED, 64493

Orbit data source: Space-Track

TBA - TO BE ASSIGNED named objects are likely recently launched satellites that are being tracked but not necessarily identified.

Loading next visibility...
Identifier
64493, 2025-133X
Orbit
LEO
Last TLE update
11 hours ago
Origin
Manufacturer
SpaceX/Seattle
Mission
Operational spacecraft
Bus & Motor
STARLINK V2MO, Unknown motor
Mass
575 kg wet, ~530 kg dry
Launch date (UTC)
2025-06-23 (1 week ago)
Launch vehicle
FALCON 9
Launch site
Air Force Eastern Test Range (AFETR)
Object type
Payload
Rocket body
Debris
Shape & HBR
Unknown
Radar Cross Section
RCS unknown

Expand to show TLE details & history

TLE from 11 hours ago
0 STARLINK-34462
1 64493U 25133X   25181.91668981 -.01226294  00000-0 -48082-2 0  9997
2 64493  53.1554 219.1714 0000795  80.8580 140.4339 15.88626902  2458
Epoch: 2025-06-30T22:00Z
TLE epoch observation values (Epoch: 2025-06-30T22:00:01.999Z)
Latitude
-32.09364°
Longitude
177.8009°
Altitude
316.501 km
Speed
7.718 km/s
True Right ascension
04h 28m 06s
True Declination
-31° 55' 44"
Sunlit
Object was in daylight at epoch
Visualization orbit readout
Latitude
-2.63336°
Longitude
-34.37253°
Altitude
310.885 km
Speed
7.723 km/s
Apparent Right ascension
12h 04m 13s
Apparent Declination
-26° 35' 22"
Sunlit
Object is in full shadow
Visualization observer readout
Local Sidereal Time
20:46:46
Azimuth
272.567° WNW
Elevation
-47.215°
Doppler factor
1
Orbital elements
Apogee altitude
306.927 km
Perigee altitude
305.864 km
Semi-major axis
6,684.532 km
Eccentricity
0.00008
Inclination
53.1554°
RAAN
219.1714°
Arg. of periapsis
80.858°
True anomaly
Unknown
Mean anomaly
140.4339°
Eccentric anomaly
Unknown
Mean motion
3.97134 °/min
Orbital period
90.65 mins
BSTAR
-0.0048082
Loading maneuver chart data...
Loading SW <> Apogee altitude chart data...

TBA - TO BE ASSIGNED Visibility forecast

Observer location: undefined°, undefined°

Span
Click to sort rows by Start time (UTC) header in descending order
Start Az.
Max El. time (UTC)
Max El. Az.
Max El.
End time (UTC)
End Az.
4 mins2025-07-02 05:00:32.622Z226.905° WSW2025-07-02 05:02:32.622Z56.031° ENE39.483°2025-07-02 05:04:32.622Z50.95° ENE
|